Tracking 19247 objects as of 24-Sep-2018
HD Live streaming from Space Station
objects crossing your sky now

FENGYUN 1C DEB

Track FENGYUN 1C DEB now!
10-day predictions


NORAD ID: 32089
Int'l Code: 1999-025CQF
Perigee: 783.7 km
Apogee: 958.6 km
Inclination: 98.9 °
Period: 102.2 minutes
Semi major axis: 7242 km
RCS: 0.0109 m2 (small)
Launch date: May 10, 1999
Source: People's Republic of China (PRC)
Launch site: Taiyaun Space Center, China (TSC)

Note: This is SATELLITE DEBRIS
aabbcc
Your satellite tracking list
Your tracking list is empty




NASA's NSSDC Master Catalog

Two Line Element Set (TLE):
1 32089U 99025CQF 18266.33196653 +.00000315 +00000-0 +19495-3 0  9996
2 32089 098.8583 308.8266 0120770 036.2901 324.6384 14.08642484574418
Source of the keplerian elements: AFSPC